Погода в Хесслехолме

Швеция     56°09′26″N   13°45′49″E
темп.,
°C
ветер,
м/с
пор.,
м/с
влажн.,
%
обл.,
%
осадки,
мм/ч
давл.,
гПа
погр.,
м
16 сентября, чт
чт1623:00+12в61397100 9.6 1012785
02:00+12в71597100 23.8 1010835
05:00+13всв61497100 2.1 1009822
08:00+14в61398100 2.6 1007947
11:00+15в4898100 0.7 1007637
14:00+16ююз3698100 1.1 1007474
17:00+16ююз2696100 0.3 1007359
20:00+15ююв239788 0.5 100769
17 сентября, пт
пт1723:00+14юв1199100 2.1 100843
02:00+14в1299100 3.1 100866
05:00+13св2698100 0.3 1008213
08:00+13св3897100 1.2 1009367
11:00+15св4994100 0.1 1010584
14:00+15св499386 0.8 1011682
17:00+15всв4109394 1.5 1012765
20:00+13всв41196100 1.9 1015660
18 сентября, сб
сб1823:00+13всв41195100 0.0 1016803
02:00+12всв41093100 0.0 1018635
05:00+11всв4119211 0.0 1018469
08:00+10св410915 0.0 1020464
11:00+15всв576110 0.0 10201205
14:00+17всв464719 0.0 10201732
17:00+16всв455225 0.0 10211585
20:00+10св39741 0.0 1022270
19 сентября, вс
вс1923:00+7св210860 0.0 1023265
02:00+6св310920 0.0 1024267
05:00+6св310925 0.0 1024253
08:00+7св311830 0.0 1024357
11:00+13всв47576 0.0 10251260
14:00+16всв454618 0.0 10241676
17:00+13св455716 0.0 10251257
20:00+11всв376149 0.0 1026630
20 сентября, пн
пн2023:00+7ссв247963 0.0 102890
02:00+11всв366198 0.0 1028472
05:00+9св388121 0.0 1028355
08:00+7ссв288652 0.0 1029235
11:00+13всв455898 0.0 10291337
14:00+13всв335590 0.0 10301212
17:00+12всв2566100 0.0 1030479
20:00+10св246897 0.0 1031126